Skip Page Navigation
NASA JPL Caltech
NASA Logo - Jet Propulsion Laboratory + View the NASA Portal
+ Center for Near-Earth Object Studies
JPL Home Earth Solar System Stars & Galaxies Technology
JPL Solar System Dynamics
BODIES ORBITS EPHEMERIDES TOOLS PHYSICAL DATA DISCOVERY FAQ SITE MAP
IMPORTANT: The SSD Announcement email list is now available. Major changes are coming in the near future, including possible hostname and/or URL changes. To be notified of such changes, subscribe to this email list.

Please visit this page for more details.


JPL Small-Body Database Browser
Search: [ help ]  
470316 (2007 OC10)
Classification: TransNeptunian Object          SPK-ID: 2470316
Ephemeris | Orbit Diagram | Orbital Elements | Physical Parameters | Discovery Circumstances ]

[ show orbit diagram ]
Orbital Elements at Epoch 2458600.5 (2019-Apr-27.0) TDB
Reference: JPL 5 (heliocentric ecliptic J2000)
 Element Value Uncertainty (1-sigma)   Units 
e .2905713351401992 2.7483e-05  
a 49.98424205534128 0.0023338 au
q 35.46025410534987 0.00038721 au
i 21.65339375024237 6.2664e-05 deg
node 258.044438149341 0.00036537 deg
peri 52.45137423753523 0.0087552 deg
M 11.95996200286693 0.0048789 deg
tp 2454312.296445384917
(2007-Jul-30.79644539)
1.6326 TDB
period 129076.7712549066
353.39
9.04
0.02475
d
yr
n .002789037845462184 1.9533e-07 deg/d
Q 64.50823000533271 0.0030119 au
  Orbit Determination Parameters
   # obs. used (total)      159  
   data-arc span      2908 days (7.96 yr)  
   first obs. used      2007-07-22  
   last obs. used      2015-07-08  
   planetary ephem.      DE431  
   SB-pert. ephem.      SB431-N16  
   condition code      3  
   norm. resid. RMS      .38077  
   source      ORB  
   producer      Otto Matic  
   solution date      2017-Apr-09 07:33:35  

Additional Information
 Earth MOID = 34.4901 au 
 Jupiter MOID = 30.6137 au 
 T_jup = 5.617 
[ show covariance matrix ]

Ephemeris | Orbit Diagram | Orbital Elements | Physical Parameters | Discovery Circumstances ]

Physical Parameter Table
Parameter Symbol Value Units Sigma Reference Notes
absolute magnitude H 5.0   n/a MPO383113  

470316 (2007 OC10)          Discovered 2007-Jul-22 by Palomar at Palomar
Reference: Last Updated: 2016-08-22
Ephemeris | Orbit Diagram | Orbital Elements | Physical Parameters | Discovery Circumstances ]
ABOUT SSD CREDITS/AWARDS PRIVACY/COPYRIGHT GLOSSARY LINKS
FirstGov
(server date/time)  
NASA Home Page
Site Manager:   Ryan S. Park
Webmaster  Alan B. Chamberlin